[[{"header":{"parameterUnit":"m.s-1","parameterCategory":1,"la1":30.2991,"la2":30.254,"lo1":-89.0895,"lo2":-89.0444,"dy":0.0017,"dx":0.0017,"nx":28,"ny":28,"refTime":"2023-10-18T21:00:00:Z","depth":0,"parameterNumber":2,"parameterNumberName":"U-component_of_WINDS"},"data":[0,0,0,0,0,0,0,0,0,0,0,0,0,0,0,0,0,0,0,0,0,0,0,0,0,0,0,0,0,0,0,0,0,0,0,0,0,0,0,0,0,0,0,0,0,0,0,0,0,0,0,0,0,0,0,0,0,0,-0.2805,-0.2805,0,-0.2811,-0.2811,-0.2811,-0.28,-0.28,-0.2799,-0.2799,-0.2806,-0.2807,-0.2807,0,0,0,0,0,0,0,0,0,0,0,0,0,-0.2784,-0.2785,-0.2805,-0.2805,-0.2805,-0.2811,-0.2811,-0.2811,-0.28,-0.28,-0.2799,-0.2799,-0.2806,-0.2807,-0.2807,0,0,0,0,0,0,0,0,0,0,0,0,0,-0.2792,-0.2785,-0.2805,-0.28,-0.28,-0.2811,-0.2811,-0.2811,-0.28,-0.28,-0.2799,-0.2799,-0.2806,-0.2806,-0.2807,-0.2824,0,0,-0.281,-0.281,0,0,0,0,0,0,0,0,-0.2792,-0.2793,-0.2801,-0.2801,-0.28,-0.2804,-0.2807,-0.2815,-0.28,-0.28,-0.2799,-0.2798,-0.2806,-0.2807,-0.2809,-0.2824,-0.2824,-0.281,-0.281,-0.2811,-0.2811,0,0,0,0,0,0,0,-0.2791,-0.2793,-0.2807,-0.2801,-0.2801,-0.2798,-0.2799,-0.2808,-0.2806,-0.28,-0.2799,-0.28,-0.2806,-0.2808,-0.2809,-0.2824,-0.281,-0.2811,-0.2811,-0.2811,-0.2854,-0.2854,0,0,0,0,0,0,-0.2791,-0.2792,-0.2807,-0.2808,-0.2795,-0.2799,-0.2799,-0.2803,-0.2806,-0.2806,-0.2801,-0.28,-0.2807,-0.2808,-0.2809,-0.283,-0.2811,-0.2811,-0.2812,-0.2853,-0.2854,-0.2854,0,0,0,0,0,0,-0.2791,-0.2793,-0.2807,-0.28,-0.2801,-0.28,-0.2804,-0.2804,-0.2807,-0.2806,-0.2806,-0.2804,-0.2807,-0.2808,-0.282,-0.283,-0.2812,-0.2813,-0.2852,-0.2853,-0.2854,-0.2869,0,0,0,0,0,0,-0.279,-0.2793,-0.2799,-0.28,-0.2802,-0.2817,-0.2805,-0.2804,-0.2808,-0.2807,-0.2809,-0.2809,-0.2807,-0.2819,-0.2821,-0.283,-0.2813,-0.2851,-0.2853,-0.2854,-0.2868,-0.2871,-0.2873,0,0,0,0,0,-0.279,-0.2803,-0.2799,-0.2801,-0.2809,-0.2818,-0.2819,-0.2816,-0.2809,-0.2815,-0.2815,-0.2809,-0.2828,-0.282,-0.2823,-0.2832,-0.2851,-0.2852,-0.2854,-0.2867,-0.287,-0.2873,0,0,0,0,0,0,-0.2803,-0.2803,-0.2799,-0.2812,-0.2815,-0.2816,-0.2824,-0.2819,-0.2824,-0.2823,-0.2819,-0.2819,-0.2832,-0.2833,-0.2825,-0.2849,-0.2838,-0.284,-0.2848,-0.2851,-0.2853,-0.2853,-0.2814,0,0,0,0,0,-0.2807,-0.2814,-0.2814,-0.2826,-0.2827,-0.2825,-0.2829,-0.2826,-0.2829,-0.283,-0.2831,-0.2834,-0.2841,-0.2846,-0.2852,-0.2868,-0.2869,-0.2875,-0.2878,-0.288,-0.2882,-0.2891,-0.2895,-0.2859,-0.2859,-0.2859,0,0,-0.2816,-0.2817,-0.2822,-0.2828,-0.283,-0.2838,-0.2827,-0.2835,-0.2841,-0.2832,-0.2843,-0.2844,-0.2847,-0.2862,-0.2868,-0.2863,-0.2892,-0.2882,-0.2883,-0.2884,-0.2893,-0.2897,-0.29,-0.286,-0.286,-0.286,0,0,-0.2838,-0.2839,-0.2849,-0.2851,-0.2854,-0.2853,-0.2855,-0.2857,-0.2857,-0.2868,-0.2862,-0.2869,-0.288,-0.2883,-0.2886,-0.2909,-0.2904,-0.2911,-0.2924,-0.2934,-0.2936,-0.2939,-0.2948,-0.2951,-0.2913,-0.2913,-0.2913,0,-0.2849,-0.286,-0.2855,-0.2865,-0.2868,-0.286,-0.2871,-0.2873,-0.2878,-0.2881,-0.2875,-0.289,-0.2891,-0.2906,-0.2912,-0.2914,-0.2918,-0.2911,-0.2936,-0.2939,-0.2941,-0.295,-0.2953,-0.2914,-0.2913,-0.2913,-0.2913,0,-0.2875,-0.2883,-0.2891,-0.2896,-0.29,-0.291,-0.2907,-0.2912,-0.2909,-0.2908,-0.292,-0.2922,-0.2928,-0.2931,-0.2928,-0.2947,-0.2943,-0.2937,-0.2927,-0.2945,-0.2954,-0.2957,-0.2915,-0.2915,-0.2914,-0.2914,0,0,-0.2905,-0.2907,-0.2911,-0.2913,-0.2915,-0.2922,-0.2931,-0.2938,-0.2943,-0.2946,-0.2955,-0.2965,-0.2959,-0.2962,-0.2959,-0.2967,-0.2986,-0.296,-0.296,-0.2965,-0.3007,-0.3013,-0.3017,-0.2982,-0.2983,-0.2983,-0.3008,0,-0.2927,-0.2944,-0.294,-0.2957,-0.2965,-0.2957,-0.2966,-0.2968,-0.2968,-0.2975,-0.2974,-0.2982,-0.2972,-0.2975,-0.2982,-0.2982,-0.2995,-0.298,-0.2991,-0.2992,-0.2992,-0.3021,-0.3027,-0.305,-0.3011,-0.3011,-0.3011,0,-0.2956,-0.296,-0.2978,-0.298,-0.2983,-0.2991,-0.2997,-0.3003,-0.3006,-0.3005,-0.3009,-0.3004,-0.3014,-0.3003,-0.3018,-0.3008,-0.3012,-0.3013,-0.3014,-0.3016,-0.3004,-0.3025,-0.3057,-0.3062,-0.3016,-0.3016,-0.3015,0,-0.2978,-0.2988,-0.3001,-0.3003,-0.3005,-0.3011,-0.3012,-0.3014,-0.3018,-0.3023,-0.3026,-0.3032,-0.3036,-0.3041,-0.3038,-0.303,-0.3054,-0.3042,-0.3054,-0.3055,-0.3061,-0.3061,-0.3095,-0.3061,-0.3061,-0.3061,-0.3061,0,-0.3004,-0.3015,-0.3011,-0.3018,-0.3031,-0.3026,-0.3039,-0.3039,-0.3042,-0.305,-0.3042,-0.305,-0.3046,-0.3053,-0.3051,-0.3064,-0.3065,-0.3066,-0.3065,-0.3067,-0.3067,-0.3071,-0.307,-0.3062,-0.3062,-0.3062,-0.3062,0,-0.3031,-0.3029,-0.3042,-0.3042,-0.3043,-0.3052,-0.3053,-0.306,-0.3059,-0.3069,-0.3071,-0.307,-0.3078,-0.3075,-0.3084,-0.3083,-0.31,-0.3097,-0.3099,-0.3099,-0.3112,-0.3111,-0.3151,-0.3156,-0.3117,-0.3118,-0.3118,0,-0.3049,-0.3058,-0.3059,-0.3064,-0.3065,-0.3073,-0.3077,-0.3073,-0.3077,-0.3082,-0.3089,-0.3096,-0.3102,-0.3116,-0.3116,-0.3123,-0.3121,-0.3134,-0.3122,-0.3124,-0.3123,-0.3123,-0.3124,-0.3137,-0.3138,-0.3138,-0.3139,0,-0.3081,-0.3079,-0.3085,-0.3091,-0.3096,-0.3101,-0.3105,-0.3109,-0.3104,-0.311,-0.3119,-0.3123,-0.3133,-0.3141,-0.3147,-0.3149,-0.3143,-0.3142,-0.3146,-0.3148,-0.315,-0.3151,-0.3107,-0.3142,-0.3141,-0.3141,-0.3141,-0.3141,-0.3105,-0.3112,-0.3115,-0.3122,-0.3124,-0.3128,-0.3135,-0.3135,-0.3142,-0.3149,-0.3145,-0.3155,-0.3159,-0.3167,-0.3169,-0.3177,-0.3172,-0.3177,-0.3178,-0.318,-0.3182,-0.3147,-0.3178,-0.3178,-0.3178,-0.3178,-0.3178,0,-0.3137,-0.3138,-0.3145,-0.3151,-0.3157,-0.315,-0.3154,-0.316,-0.3168,-0.3171,-0.3177,-0.3188,-0.3195,-0.3196,-0.3203,-0.3209,-0.3207,-0.3212,-0.3212,-0.3213,-0.3185,-0.3182,-0.3213,-0.3213,-0.3213,-0.3213,-0.3213,-0.3213,-0.3155,-0.3168,-0.3166,-0.3181,-0.3181,-0.3191,-0.3194,-0.3198,-0.32,-0.3212,-0.3218,-0.3218,-0.322,-0.3228,-0.3235,-0.3234,-0.3238,-0.3244,-0.3243,-0.3218,-0.3214,-0.3211,-0.3208,-0.3244,-0.3244,-0.327,-0.327,-0.327]},{"header":{"parameterUnit":"m.s-1","parameterCategory":1,"la1":30.2991,"la2":30.254,"lo1":-89.0895,"lo2":-89.0444,"dy":0.0017,"dx":0.0017,"nx":28,"ny":28,"refTime":"2023-10-18T21:00:00:Z","depth":0,"parameterNumber":3,"parameterNumberName":"V-component_of_WINDS"},"data":[0,0,0,0,0,0,0,0,0,0,0,0,0,0,0,0,0,0,0,0,0,0,0,0,0,0,0,0,0,0,0,0,0,0,0,0,0,0,0,0,0,0,0,0,0,0,0,0,0,0,0,0,0,0,0,0,0,0,3.8958,3.8959,0,3.9065,3.9066,3.9068,3.9025,3.9022,3.902,3.9018,3.9123,3.9128,3.9133,0,0,0,0,0,0,0,0,0,0,0,0,0,3.8712,3.8716,3.8958,3.896,3.8961,3.9065,3.9066,3.9068,3.9025,3.9022,3.9019,3.9016,3.9121,3.9127,3.9133,0,0,0,0,0,0,0,0,0,0,0,0,0,3.8819,3.8718,3.8958,3.8952,3.8953,3.9065,3.9067,3.9068,3.9026,3.9022,3.9018,3.9015,3.9119,3.9126,3.9134,3.9256,0,0,3.9158,3.9161,0,0,0,0,0,0,0,0,3.8813,3.8828,3.8952,3.8953,3.8954,3.9028,3.9018,3.9131,3.9027,3.8998,3.9018,3.9013,3.9094,3.9103,3.9132,3.9261,3.9266,3.9158,3.9163,3.9166,3.9168,0,0,0,0,0,0,0,3.8805,3.8823,3.9,3.8954,3.8955,3.8943,3.8954,3.9039,3.9066,3.9,3.8998,3.9011,3.9094,3.9124,3.9134,3.9267,3.9158,3.9165,3.917,3.9173,3.95,3.9504,0,0,0,0,0,0,3.8798,3.8817,3.8997,3.9004,3.8873,3.895,3.8962,3.9008,3.9065,3.907,3.9014,3.9009,3.9113,3.9125,3.9137,3.9282,3.9166,3.9173,3.9178,3.9496,3.9501,3.9505,0,0,0,0,0,0,3.8793,3.8815,3.8993,3.891,3.8931,3.8958,3.901,3.9012,3.9042,3.9075,3.9079,3.9041,3.911,3.9126,3.9227,3.9285,3.9177,3.9184,3.9491,3.9497,3.9503,3.9574,0,0,0,0,0,0,3.8786,3.8813,3.8861,3.8911,3.8936,3.9082,3.9013,3.9017,3.9056,3.905,3.9101,3.9106,3.9109,3.9216,3.9234,3.9294,3.919,3.9486,3.9494,3.9501,3.9566,3.9582,3.9595,0,0,0,0,0,3.8778,3.8877,3.8864,3.8886,3.8997,3.9086,3.91,3.9102,3.9061,3.9109,3.9129,3.9104,3.9276,3.9226,3.9247,3.931,3.9482,3.9491,3.95,3.956,3.9579,3.9594,0,0,0,0,0,0,3.8832,3.8883,3.887,3.8988,3.9033,3.9078,3.9139,3.9122,3.9179,3.917,3.917,3.9182,3.9285,3.9307,3.9251,3.9429,3.9373,3.9386,3.9411,3.9429,3.9443,3.9434,3.9196,0,0,0,0,0,3.8858,3.8928,3.8968,3.9069,3.9092,3.9112,3.915,3.9148,3.9194,3.9213,3.924,3.9285,3.9348,3.939,3.9451,3.957,3.9579,3.9623,3.9637,3.9649,3.966,3.9722,3.9741,3.9535,3.9535,3.9535,0,0,3.8912,3.8949,3.8993,3.908,3.9115,3.9185,3.9128,3.9205,3.9256,3.9224,3.932,3.9342,3.9391,3.9501,3.955,3.9523,3.9719,3.966,3.9669,3.9674,3.9733,3.9753,3.977,3.9541,3.954,3.9539,0,0,3.9046,3.9082,3.9168,3.9204,3.9257,3.927,3.929,3.9338,3.9352,3.9449,3.9426,3.9486,3.9596,3.9631,3.9663,3.9809,3.9787,3.9829,3.9902,3.9963,3.9979,3.9993,4.0042,4.0061,3.984,3.9841,3.9841,0,3.9106,3.9212,3.9215,3.9293,3.9331,3.9307,3.9393,3.9427,3.9497,3.9523,3.9491,3.9628,3.9659,3.9776,3.9811,3.9839,3.9861,3.9822,3.9977,3.9991,4.0004,4.0051,4.007,3.9845,3.9845,3.9844,3.9844,0,3.9282,3.9355,3.9419,3.9487,3.9533,3.9615,3.9628,3.9673,3.9667,3.9682,3.9779,3.9816,3.9882,3.991,3.9905,4.0026,4.0006,3.9976,3.9918,4.0028,4.0072,4.0091,3.9852,3.985,3.9849,3.9847,0,0,3.9452,3.9521,3.9544,3.9574,3.963,3.9686,3.9766,3.9832,3.987,3.9919,3.9983,4.0077,4.0049,4.0085,4.0084,4.0137,4.0247,4.01,4.0101,4.0124,4.0379,4.04,4.0421,4.0234,4.0237,4.024,4.0374,0,3.9588,3.973,3.9734,3.9862,3.9928,3.9906,3.9975,4.0016,4.0031,4.0089,4.0105,4.0171,4.013,4.0152,4.0204,4.0223,4.0298,4.0213,4.0292,4.0294,4.0278,4.0444,4.0467,4.0592,4.0391,4.0394,4.0396,0,3.9766,3.9821,3.9956,4.0001,4.0029,4.0091,4.0151,4.0207,4.0252,4.0259,4.03,4.029,4.0369,4.031,4.0418,4.036,4.0392,4.0406,4.0411,4.0417,4.0351,4.0452,4.0632,4.065,4.0424,4.0422,4.042,0,3.9874,3.9982,4.0076,4.0102,4.0158,4.0202,4.0226,4.0268,4.0307,4.0359,4.0383,4.0443,4.0476,4.0522,4.0527,4.0484,4.0634,4.0576,4.064,4.064,4.0671,4.0669,4.0856,4.0696,4.0696,4.0695,4.0695,0,4.0024,4.0107,4.0125,4.0182,4.0274,4.0277,4.0366,4.0388,4.0425,4.0484,4.0468,4.0524,4.053,4.0587,4.0592,4.0678,4.0693,4.07,4.07,4.07,4.0699,4.072,4.071,4.07,4.0699,4.0698,4.0697,0,4.016,4.0175,4.0275,4.032,4.0333,4.0398,4.0435,4.0489,4.0503,4.0578,4.0596,4.0618,4.0684,4.0695,4.0773,4.0776,4.0879,4.0871,4.0864,4.0862,4.0924,4.0917,4.113,4.1157,4.0981,4.0983,4.0984,0,4.0254,4.0317,4.0368,4.0407,4.0434,4.0498,4.0537,4.0542,4.0584,4.0639,4.0686,4.0751,4.0802,4.0909,4.093,4.0989,4.0981,4.1052,4.099,4.0987,4.0979,4.0975,4.098,4.1063,4.1065,4.1066,4.1068,0,4.0418,4.0422,4.048,4.0541,4.0588,4.0636,4.0681,4.0714,4.0724,4.0771,4.0839,4.088,4.0959,4.1022,4.1081,4.1104,4.1087,4.1087,4.1104,4.1104,4.1097,4.1099,4.0894,4.1082,4.108,4.1079,4.1078,4.1078,4.0534,4.0588,4.0632,4.0696,4.0731,4.0773,4.0825,4.0846,4.0903,4.0968,4.0968,4.1041,4.1083,4.1159,4.1187,4.1243,4.122,4.1246,4.1252,4.1258,4.1263,4.109,4.1254,4.1253,4.1253,4.1253,4.1253,0,4.0695,4.0722,4.0781,4.0845,4.0895,4.0876,4.0925,4.0967,4.1033,4.1074,4.1125,4.1202,4.1263,4.129,4.1349,4.1389,4.1383,4.1404,4.14,4.1406,4.1281,4.1259,4.1409,4.1409,4.1409,4.1409,4.1408,4.1408,4.0784,4.0874,4.0883,4.0989,4.1015,4.1088,4.1117,4.1155,4.1187,4.1274,4.1325,4.1342,4.1377,4.1438,4.1493,4.1499,4.1521,4.1546,4.1548,4.1431,4.1415,4.1399,4.1379,4.1551,4.1551,4.1667,4.1668,4.1669]}]]